This demonstration page uses our WeatherBlox Daily Observations layout. Learn more.

Left ArrowRight Arrow

Hourly Observations for December 5, 2020

Temp ( °F °C ) Dew Point ( °F °C ) Humidity (%) Winds ( mph kmh ) Pressure ( in mb ) Visibility ( mi km ) Precip ( " mm )
12:54 am 00:54 Clear 24 -4.4 19 -7.2 81 81 NNW 3 6 30.15 1021 10 16.0934 0 0
1:54 am 01:54 Clear 31 -0.6 22 -5.6 69 69 NW 6 9 30.15 1021 10 16.0934 0 0
2:54 am 02:54 Clear 32 0 22 -5.6 66 66 NW 5 7 30.17 1022 10 16.0934 0 0
3:54 am 03:54 Clear 34 1.1 24 -4.4 67 67 NNW 7 11 30.18 1022 10 16.0934 0 0
4:54 am 04:54 Clear 34 1.1 24 -4.4 67 67 NW 9 15 30.2 1023 10 16.0934 0 0
5:54 am 05:54 Clear 33 0.6 24 -4.4 70 70 NW 9 15 30.22 1023 10 16.0934 0 0
6:54 am 06:54 Clear 33 0.6 23 -5 66 66 NW 10 17 30.22 1024 10 16.0934 0 0
7:54 am 07:54 Sunny 33 0.6 23 -5 66 66 NNW 14 22 30.24 1024 10 16.0934 0 0
8:54 am 08:54 Sunny 36 2.2 25 -3.9 64 64 NNW 10 17 30.27 1025 10 16.0934 0 0
9:54 am 09:54 Sunny 40 4.4 26 -3.3 58 58 NNW 10 17 30.29 1026 10 16.0934 0 0
10:54 am 10:54 Sunny 42 5.6 26 -3.3 53 53 N 15 24 30.28 1025 10 16.0934 0 0
11:54 am 11:54 Sunny 46 7.8 27 -2.8 47 47 NNW 14 22 30.26 1025 10 16.0934 0 0
12:54 pm 12:54 Sunny 48 8.9 28 -2.2 46 46 N 13 20 30.24 1024 10 16.0934 0 0
1:54 pm 13:54 Sunny 49 9.4 28 -2.2 44 44 NNW 13 20 30.21 1023 10 16.0934 0 0
2:54 pm 14:54 Sunny 50 10 28 -2.2 43 43 NNW 12 19 30.2 1023 10 16.0934 0 0
3:54 pm 15:54 Sunny 50 10 28 -2.2 43 43 N 14 22 30.19 1023 10 16.0934 0 0
4:54 pm 16:54 Sunny 48 8.9 28 -2.2 46 46 NNW 5 7 30.2 1023 10 16.0934 0 0
5:54 pm 17:54 Clear 37 2.8 25 -3.9 62 62 NNW 6 9 30.22 1023 10 16.0934 0 0
6:54 pm 18:54 Clear 31 -0.6 23 -5 72 72 Calm 30.22 1023 10 16.0934 0 0
7:54 pm 19:54 Clear 32 0 24 -4.4 73 73 WNW 3 6 30.2 1023 10 16.0934 0 0
8:54 pm 20:54 Clear 30 -1.1 23 -5 75 75 Calm 30.19 1022 10 16.0934 0 0
9:54 pm 21:54 Clear 33 0.6 24 -4.4 70 70 Calm 30.17 1022 10 16.0934 0 0
10:54 pm 22:54 Clear 31 -0.6 24 -4.4 76 76 Calm 30.16 1022 10 16.0934 0 0
11:54 pm 23:54 Clear 33 0.6 25 -3.9 72 72 NNW 7 11 30.16 1021 10 16.0934 0 0

Powered by AerisWeather